Presure
175 170 170 167 169 234 209 133 315 306 288 295 289 135 266 180 134 132 266 141 302 314 315 134 155 159 258 141 136 140 141 144 150 153 155 155 163 133 130 116 136 147 197 167
164 202 158 164 159 184 169 168 148 222 300 304 132 279 322 320 181 319 138 152 180 148 149 305 275 259 246 257 167 255 149 184 253 141 148 141 125 183 127 136 133 111 112 125
161 191 158 166 124 131 150 155 223 203 132 140 264 262 168 154 162 163 152 157 155 151 155 150 131 135 140 221 295 279 205 140 145 123 140 166 135 151 140 122 136 266 113 122
192 200 199 190 139 166 161 160 168 159 184 177 147 147 139 135 141 141 143 231 142 258 173 162 164 286 290 288 259 293 140 136 140 125 287 131 128 124 164 169 131 121 137 260
264 207 138 153 180 176 145 145 241 138 144 136 121 217 195 135 140 167 169 324 327 167 166 160 176 160 270 162 170 165 206 156 294 295 139 128 193 113 123 118 154 303 109 141
230 268 205 200 184 164 147 171 182 134 118 155 153 133 143 138 149 244 243 188 212 153 181 161 155 183 237 237 242 237 156 170 201 151 158 203 244 225 169 234 237 217 220 257
216 201 263 226 195 133 142 150 199 133 113 149 140 143 176 133 163 181 149 149 208 175 191 234 232 230 228 229 179 180 182 183 191 165 165 163 193 205 206 201 199 188 193 219
200 209 223 257 243 214 134 142 177 131 210 130 186 148 166 145 166 162 197 174 179 204 196 176 172 213 207 164 121 169 197 200 192 200 180 198 194 189 197 180 158 181 193 186
193 202 213 211 249 258 149 126 133 159 137 129 147 149 206 139 207 196 152 206 203 146 153 143 197 191 204 191 190 193 193 191 189 187 176 178 195 192 202 165 157 205 167 175
184 195 189 201 218 237 264 250 214 178 202 154 131 128 128 153 162 151 177 196 186 163 204 187 199 186 195 180 186 189 192 186 185 179 174 167 182 183 171 162 167 164 171 175
185 192 199 206 198 203 220 243 259 160 196 178 127 132 176 195 179 129 129 197 209 199 191 189 194 191 192 184 185 202 191 185 189 190 212 189 192 215 183 200 172 184 170 192
171 164 194 175 193 216 185 204 225 142 250 233 179 148 142 188 212 130 217 220 227 232 233 232 234 228 237 234 247 243 243 223 232 193 237 238 235 252 251 244 242 224 194 168
184 175 164 196 177 192 199 213 204 213 225 266 247 226 204 138 208 138 139 225 214 144 226 231 180 242 235 226 219 228 225 229 229 220 224 234 242 227 228 233 162 238 238 229
165 196 175 188 186 175 210 192 206 188 234 215 274 259 237 130 203 217 210 174 190 145 140 231 129 205 160 197 206 203 188 214 218 224 227 228 227 231 239 232 226 222 226 229
197 190 193 177 178 175 196 182 193 219 199 197 204 234 247 254 225 200 223 223 158 131 135 165 205 126 204 125 136 199 205 196 202 214 207 206 212 217 208 210 214 215 182 188
185 170 167 175 185 171 161 193 181 196 188 197 215 221 211 223 270 214 235 231 131 133 134 232 236 236 130 124 132 124 137 133 134 215 208 206 188 206 183 214 212 209 204 218
183 178 168 190 174 174 171 163 193 189 175 193 200 178 192 193 210 199 202 210 208 244 242 130 145 126 132 233 240 129 244 204 125 244 243 233 181 210 196 225 209 209 211 209
164 183 179 177 168 175 187 182 192 174 186 178 196 207 202 218 191 191 213 191 215 196 212 197 204 169 171 216 182 216 208 219 220 220 234 249 246 209 248 217 219 207 214 216
178 184 180 174 178 169 178 178 187 173 202 194 185 169 190 193 200 206 207 201 222 218 195 217 225 203 196 223 168 222 212 201 213 173 211 176 182 235 241 181 182 178 200 233
184 184 181 186 173 179 169 172 169 200 169 180 197 189 174 169 213 197 187 203 198 190 210 214 213 224 200 223 245 115 174 199 165 166 224 198 164 307 277 268 263 264 172 246
190 183 193 181 195 187 190 197 173 180 178 180 191 188 214 187 207 213 191 198 196 185 219 218 211 216 216 193 198 211 203 221 190 216 161 233 233 223 290 330 306 280 271 256
190 191 183 192 191 176 192 186 183 170 183 186 192 185 179 209 184 179 197 207 183 218 198 182 223 225 223 222 219 214 213 204 192 219 227 221 282 233 233 226 272 267 247 235
190 192 197 199 194 196 166 170 186 197 177 171 197 179 198 194 187 201 200 172 214 213 189 186 219 186 229 211 196 193 233 225 219 231 205 223 223 236 239 258 255 236 253 263
197 187 190 196 184 207 183 175 188 184 206 179 168 202 185 199 213 195 186 205 188 200 229 209 210 219 249 239 227 220 204 229 186 233 214 202 227 214 224 206 241 231 244 240
195 197 176 197 200 203 206 204 198 179 195 186 192 192 183 183 206 209 184 184 186 191 205 204 206 197 219 241 233 238 215 237 207 251 201 238 225 203 231 264 220 238 233 247
178 179 191 201 197 198 197 198 209 196 172 195 183 181 179 179 189 195 205 205 184 186 222 214 182 229 197 213 236 234 205 240 239 252 226 233 214 251 247 220 238 242 259 243
208 190 210 198 203 200 203 206 200 210 187 203 205 188 187 204 181 193 208 204 209 199 198 219 235 222 214 200 247 243 225 233 227 236 243 250 251 246 198 254 240 249 258 291
Wind_Speed
43 42 42 42 45 26 41 27 51 55 53 50 50 25 43 33 27 21 36 24 24 20 24 15 20 23 32 17 16 15 16 17 16 15 13 13 14 24 26 27 19 18 6 14
24 70 32 35 35 49 33 34 28 40 42 35 19 36 38 34 25 30 23 22 25 18 19 44 41 33 31 28 12 30 15 13 23 20 13 21 26 6 21 23 22 31 33 28
18 46 25 31 10 26 26 25 46 39 17 21 47 46 34 28 28 27 22 23 21 17 16 14 10 11 11 19 35 30 15 20 16 26 18 13 20 14 20 30 26 14 37 39
45 52 57 46 16 25 28 26 31 27 37 34 28 28 27 23 22 19 18 32 14 33 18 12 10 34 28 29 21 26 17 19 16 28 21 28 33 32 13 16 34 40 24 9
67 50 7 12 29 23 15 16 73 14 21 20 6 54 45 21 18 19 16 47 45 15 11 10 15 8 28 5 8 8 10 14 21 11 23 29 1 28 34 37 29 11 38 31
69 62 43 41 29 22 12 25 30 12 5 19 22 15 18 19 20 64 63 32 49 17 23 7 9 21 53 51 50 47 5 3 22 17 14 15 39 24 16 33 32 19 23 12
60 48 58 44 36 3 5 10 36 9 9 14 13 15 28 11 25 27 13 12 41 21 30 53 51 48 46 45 14 13 11 11 15 7 12 15 9 11 15 15 12 7 6 23
56 54 59 53 44 38 1 1 19 1 35 5 31 15 13 10 11 2 30 21 23 30 27 19 15 34 30 4 5 9 19 18 11 16 2 11 10 5 5 8 20 10 6 4
46 55 53 49 59 42 4 4 6 7 4 0 6 6 28 8 27 25 6 27 25 10 5 11 20 14 23 17 14 11 11 10 7 6 9 6 9 6 10 19 20 14 21 20
33 49 44 45 52 56 43 37 30 13 27 6 4 2 1 6 10 3 7 17 17 9 18 14 15 12 12 7 7 7 8 6 7 9 13 14 13 13 20 25 24 26 24 23
40 44 50 50 39 41 48 45 37 7 16 14 9 9 13 18 13 2 2 12 15 12 11 11 8 7 6 6 6 8 6 7 5 7 14 9 9 12 15 10 26 21 33 21
27 14 41 20 40 44 30 38 44 13 29 25 17 14 15 16 22 10 24 23 25 26 26 25 25 25 23 23 18 20 18 21 19 14 21 19 19 14 14 16 16 16 18 38
31 32 17 40 18 39 39 42 34 42 44 27 25 22 21 17 24 16 15 26 21 17 25 23 17 20 22 22 20 22 22 22 21 18 21 22 21 19 19 18 32 19 20 19
25 35 30 32 37 21 42 34 38 28 47 43 24 23 22 22 19 24 25 22 19 20 22 26 18 20 19 21 24 20 23 25 25 29 29 28 28 29 27 26 26 25 28 30
52 37 30 32 30 24 40 26 36 38 29 28 33 34 21 24 23 22 23 23 24 25 28 28 31 17 34 16 15 32 38 25 35 35 33 35 33 32 27 28 31 32 36 35
38 28 25 28 28 22 15 33 27 40 23 27 36 35 30 32 24 19 27 27 29 31 33 30 30 32 27 13 29 15 33 30 30 40 42 42 20 42 28 43 41 39 33 44
48 30 28 41 25 32 30 19 32 34 18 34 32 23 19 19 24 24 25 28 31 28 29 23 29 28 37 34 37 31 42 41 28 48 49 43 33 47 33 47 49 51 53 50
35 54 39 30 27 31 33 32 32 29 39 25 40 36 32 30 20 20 34 24 31 22 25 24 22 26 30 33 26 33 32 37 38 42 47 52 54 47 59 46 56 51 56 58
55 59 50 37 38 29 35 37 43 34 39 41 39 23 39 41 35 37 35 30 37 39 27 32 33 24 24 43 38 40 34 33 37 35 40 41 44 54 56 45 47 40 53 65
70 68 52 56 40 41 32 36 34 59 30 42 38 40 29 25 42 45 29 43 37 31 46 45 34 46 31 50 41 23 44 37 45 47 45 44 45 61 62 61 61 66 50 65
81 66 78 54 69 56 60 60 39 42 43 42 46 44 50 47 40 40 41 45 43 34 44 44 46 47 49 37 41 49 43 56 41 49 51 46 43 44 53 57 59 61 64 66
85 85 68 77 69 47 61 57 53 36 50 55 54 47 42 49 44 40 50 48 32 42 44 41 47 48 49 51 54 56 53 41 44 49 56 43 58 44 43 42 44 46 49 54
86 87 88 88 72 73 45 47 58 63 49 42 58 46 58 50 47 51 51 32 48 52 43 35 46 38 53 53 44 46 59 57 56 61 44 49 48 60 49 56 53 51 55 56
103 77 79 81 57 85 61 54 60 56 68 52 40 61 53 59 59 55 53 53 56 59 60 58 56 56 57 59 57 58 51 62 56 57 51 44 64 43 53 48 61 51 62 58
94 91 58 92 83 93 92 85 74 58 63 57 56 60 59 54 63 60 46 52 54 61 53 58 59 55 60 60 61 63 56 64 53 65 52 66 58 51 65 63 51 70 61 68
65 64 72 99 86 84 79 76 87 67 52 63 60 58 57 56 52 64 66 56 52 58 59 56 40 61 55 60 62 63 57 66 65 62 63 65 58 67 64 55 74 76 74 74
102 71 100 91 101 88 90 88 72 85 63 74 71 61 64 71 63 70 70 63 59 61 61 64 67 61 66 61 69 69 61 62 63 69 73 74 70 67 52 73 76 73 75 77
Wind_Direction
65 63 54 62 63 59 67 85 68 70 72 75 82 92 85 93 105 120 98 99 108 122 127 142 116 120 122 157 179 178 180 187 190 200 204 217 243 200 208 217 216 267 236 201
70 38 62 59 61 64 71 75 81 75 79 78 92 85 86 92 98 97 107 107 105 114 120 119 119 119 118 124 139 124 178 159 141 190 200 205 213 231 227 221 212 248 244 228
49 52 77 65 84 74 82 78 72 77 101 90 86 88 86 78 79 82 85 92 97 99 106 121 159 167 168 124 128 119 141 189 192 214 215 202 224 249 232 233 239 137 252 232
27 32 34 50 57 66 85 82 74 73 74 81 85 86 94 96 76 77 72 87 78 100 103 97 102 97 101 97 108 118 195 206 218 222 106 225 228 234 254 234 234 238 260 78
22 26 32 99 62 69 105 111 51 97 88 109 56 68 65 83 69 76 76 84 82 90 93 90 111 106 92 130 165 174 120 233 89 103 237 239 342 259 244 251 287 81 265 277
24 23 24 31 52 42 101 54 64 113 83 86 81 68 91 90 60 81 83 81 85 83 88 82 83 83 88 88 86 88 224 68 84 260 266 82 82 91 283 82 82 79 82 72
17 20 25 24 27 84 95 81 39 133 98 78 81 75 63 86 71 81 46 46 76 97 77 87 89 90 90 87 65 52 75 91 98 262 286 279 51 66 68 88 39 336 337 55
12 15 23 24 25 31 128 313 40 128 47 102 39 58 63 51 65 75 68 61 68 72 72 68 73 80 82 83 235 48 83 90 90 88 0 80 101 134 108 293 296 311 21 327
4 10 17 17 29 24 220 210 257 13 286 96 102 90 56 70 51 51 19 71 76 23 311 347 64 63 69 58 62 57 60 53 30 9 309 325 42 18 32 284 294 25 283 296
6 0 7 12 18 29 21 17 17 4 21 355 251 224 154 47 59 9 63 40 27 27 70 35 65 39 53 18 16 20 28 353 347 309 299 301 290 286 284 307 294 297 287 296
353 3 355 2 10 8 24 25 13 286 354 350 275 271 6 19 18 262 326 26 39 26 8 6 29 30 40 4 356 32 350 318 312 302 3 289 300 335 284 320 303 301 298 310
339 337 352 5 1 14 353 10 26 267 359 355 334 304 245 350 6 293 11 12 19 25 26 23 21 19 21 20 25 20 20 8 11 305 7 2 1 346 337 330 328 317 282 296
339 336 323 350 358 0 0 7 11 12 22 352 347 344 348 293 349 280 274 7 8 314 10 11 345 14 10 9 9 9 7 6 4 2 358 354 352 352 348 345 303 339 338 326
318 334 328 343 341 337 351 355 2 348 19 16 347 339 334 280 328 345 342 333 349 306 303 1 333 354 346 357 350 357 345 350 348 346 345 345 342 340 339 339 336 332 332 330
315 321 324 326 329 338 348 346 346 1 360 2 6 7 336 328 333 317 333 334 308 316 313 318 336 327 340 337 330 341 341 331 339 334 333 333 331 329 328 325 325 324 317 319
303 298 304 315 324 310 280 330 327 340 344 342 360 5 6 8 318 345 336 331 291 294 299 325 327 329 320 314 320 327 320 328 329 319 322 322 302 324 281 317 318 322 324 315
294 286 289 308 303 309 308 277 323 330 309 340 344 313 322 345 354 346 339 354 359 324 318 308 313 308 305 347 326 320 319 318 323 312 310 304 291 307 310 299 313 312 310 305
276 289 286 284 291 299 307 308 316 307 320 311 332 333 328 349 331 326 348 326 344 334 341 318 341 309 287 353 305 349 338 342 339 334 319 306 303 296 295 289 295 310 304 302
284 284 282 278 285 284 294 299 305 305 307 309 318 285 326 327 329 336 336 332 344 338 314 335 339 328 317 339 301 350 342 328 340 290 329 319 309 299 294 297 308 291 295 294
279 282 278 283 277 282 280 287 288 308 294 307 302 305 296 279 326 324 310 331 333 304 329 331 324 336 304 337 340 292 303 322 291 302 329 317 303 286 291 292 293 290 302 291
276 276 279 276 284 284 291 293 282 291 295 297 301 303 321 309 307 309 317 319 323 306 315 320 328 327 326 305 312 326 318 332 309 337 297 329 326 326 293 287 287 291 292 292
271 273 272 277 278 269 286 284 282 279 290 293 300 297 299 309 306 311 313 317 305 323 324 305 332 317 315 313 314 319 322 315 303 328 327 334 342 331 333 329 314 322 323 310
267 271 274 275 273 279 264 269 274 289 280 284 297 290 299 302 299 299 303 297 325 318 319 317 317 312 314 318 313 301 317 320 323 323 311 325 331 331 334 334 331 330 326 321
264 262 269 272 262 278 267 271 270 275 287 278 282 291 290 301 305 297 304 309 309 308 324 314 314 316 322 315 311 312 315 314 298 319 317 303 326 315 330 315 330 331 330 327
258 261 255 270 271 274 276 276 276 267 278 279 289 281 288 294 299 298 295 303 304 305 310 310 311 318 314 314 315 318 313 319 319 323 312 323 313 310 322 327 332 326 328 327
253 255 259 265 265 267 267 269 276 270 271 274 275 282 286 291 291 292 293 295 301 303 315 308 311 312 316 318 314 315 313 319 322 325 317 318 320 323 326 323 321 323 322 325
251 253 257 259 262 263 269 270 268 274 268 281 284 283 280 289 288 287 289 291 294 296 299 310 314 310 310 316 311 311 317 319 318 320 323 321 321 320 306 324 318 319 323 327